Regional Weather Roundup
Issued by NWS Spokane, WA

Current Version | Previous Version | Text Only | Print | Product List | Glossary On
Versions: 1 2 3 4 5 6 7 8 9 10 11 12 13 14 15 16 17 18 19 20 21 22 23 24 25 26 27 28 29 30 31 32 33 34 35 36 37 38 39 40 41 42 43 44 45 46 47 48 49 50
000
NZUS01 KOTX 040210
RWROTX
EASTERN WASHINGTON/NORTHERN IDAHO ROUNDUP
NATIONAL WEATHER SERVICE, SPOKANE WA
700 PM PDT FRI JUL 03 2015

Note: "fair" indicated few or no clouds below 12,000 feet with no
significant weather and/or obstructions to visibility.

...NORTHEAST WASHINGTON AND NORTHERN IDAHO PANHANDLE...

CITY           SKY/WX    TMP DP  RH WIND       PRES   REMARKS
SPOKANE INTL   MOSUNNY   97  37  12 W13       29.78F HX  92
SPOKANE DOWNTO SUNNY     98  41  14 W8        29.75F HX  93
COEUR D ALENE  SUNNY     95  46  18 S7        29.75F HX  91
DEER PARK      SUNNY     96  41  15 SW9       29.76F HX  92
SANDPOINT      SUNNY     93  45  18 CALM      29.75F
BONNERS FERRY  FAIR      91  46  21 SW7       29.76S

...SOUTHEAST WASHINGTON AND SOUTHERN IDAHO PANHANDLE...

CITY           SKY/WX    TMP DP  RH WIND       PRES   REMARKS
WALLA WALLA    SUNNY    103  33   9 W13       29.71F HX  96
PULLMAN/MOSCOW SUNNY     93  40  15 SW8       29.83F
LEWISTON       SUNNY    102  42  13 N7        29.71F HX  97
LOWELL           N/A     84  51  31 N6        29.74S

...COLUMBIA BASIN...

CITY           SKY/WX    TMP DP  RH WIND       PRES   REMARKS
EPHRATA        SUNNY    102  40  12 S15       29.68F HX  97
MOSES LAKE     SUNNY    102  36  10 SW9       29.70F HX  96
TRI CITIES     SUNNY    105  38  10 E7        29.65F HX  99
HERMISTON      SUNNY    104  40  11 NW5       29.67F HX  98
PENDLETON      SUNNY    100  29   8 NW9       29.74F HX  93

...EAST SLOPES CASCADES...

CITY           SKY/WX    TMP DP  RH WIND       PRES   REMARKS
THE DALLES     SUNNY     97  50  20 NW22G29   29.70F HX  94
YAKIMA         SUNNY    103  41  12 N12       29.70F HX  98
ELLENSBURG     SUNNY     93  46  19 NW24G32   29.78F
WENATCHEE      SUNNY    102  39  11 NW20      29.70S HX  97
OMAK           SUNNY    101  46  15 N13G21    29.68F HX  97

...SOUTHERN BRITISH COLUMBIA...

CITY           SKY/WX    TMP DP  RH WIND       PRES   REMARKS
PENTICTON      MOSUNNY   97  50  20 N12       29.72S HX  94
CASTLEGAR      MOSUNNY   91  55  29 N7        29.71S
CRANBROOK      PTSUNNY   91  39  16 W10       29.79F

...WESTERN MONTANA...

CITY           SKY/WX    TMP DP  RH WIND       PRES   REMARKS
MISSOULA       MOSUNNY   93  41  16 W8        29.82S

...NEIGHBORING CITIES...

CITY           SKY/WX    TMP DP  RH WIND       PRES   REMARKS
SEATTLE        SUNNY     91  53  27 N7        29.85F
CALGARY        PTSUNNY   81  52  36 E9        29.83F



USA.gov is the U.S. government's official web portal to all federal, state and local government web resources and services.